This demonstration page uses our WeatherBlox Daily Observations layout. Learn more.

Left ArrowRight Arrow

39.51506, -84.39828

Hourly Observations for March 4, 2018

Temp ( °F °C ) Dew Point ( °F °C ) Humidity (%) Winds ( mph kmh ) Pressure ( in mb ) Visibility ( mi km ) Precip ( " mm )
12:15 am 00:15 Clear 32 0.2 18 -7.8 55 55 ENE 9 15 30.48 1032 10 16.0934 N/A
12:35 am 00:35 Clear 32 -0.1 18 -7.8 57 57 ENE 8 13 30.48 1032 10 16.0934 N/A
12:55 am 00:55 Clear 33 0.3 18 -7.8 55 55 ENE 8 13 30.48 1032 10 16.0934 N/A
1:15 am 01:15 Clear 31 -0.5 19 -7.3 60 60 NE 5 7 30.48 1032 10 16.0934 N/A
1:35 am 01:35 Clear 31 -0.5 18 -7.6 59 59 N N/A 30.48 1032 10 16.0934 N/A
1:55 am 01:55 Clear 31 -0.7 19 -7.2 62 62 N N/A 30.48 1032 10 16.0934 N/A
2:15 am 02:15 Clear 30 -1 20 -6.5 67 67 NNE 5 7 30.48 1032 10 16.0934 N/A
2:35 am 02:35 Clear 29 -1.5 20 -6.5 69 69 NNE 3 6 30.48 1032 10 16.0934 N/A
2:55 am 02:55 Clear 29 -1.4 21 -6.3 70 70 NNE 3 6 30.48 1032 10 16.0934 N/A
3:15 am 03:15 Clear 29 -1.8 21 -6 73 73 N 3 6 30.48 1032 10 16.0934 N/A
3:35 am 03:35 Clear 28 -2 21 -5.9 75 75 N 3 6 30.48 1032 10 16.0934 N/A
3:55 am 03:55 Clear 28 -2.2 21 -6.3 74 74 N 5 7 30.48 1032 10 16.0934 N/A
4:15 am 04:15 Clear 28 -2.2 20 -6.7 72 72 N 3 6 30.48 1032 10 16.0934 N/A
4:35 am 04:35 Clear 28 -2.4 21 -6.2 75 75 N N/A 30.48 1032 10 16.0934 N/A
4:55 am 04:55 Clear 28 -2.4 21 -6.3 75 75 N N/A 30.48 1032 10 16.0934 N/A
5:15 am 05:15 Clear 28 -2.3 20 -6.4 74 74 N 3 6 30.48 1032 10 16.0934 N/A
5:35 am 05:35 Clear 27 -2.8 20 -6.5 76 76 NNE 3 6 30.48 1032 10 16.0934 N/A
5:55 am 05:55 Clear 28 -2.5 20 -6.5 74 74 N N/A 30.5 1033 10 16.0934 N/A
6:15 am 06:15 Clear 28 -2.4 21 -6.2 75 75 N N/A 30.5 1033 10 16.0934 N/A
6:35 am 06:35 Clear 27 -2.6 20 -6.4 75 75 NNE 5 7 30.5 1033 10 16.0934 N/A
6:55 am 06:55 Clear 27 -2.8 20 -6.6 75 75 NNE 6 9 30.56 1035 10 16.0934 N/A
7:15 am 07:15 Sunny 27 -3 20 -6.4 78 78 N 3 6 30.56 1035 10 16.0934 N/A
7:35 am 07:35 Sunny 27 -2.7 21 -6.2 77 77 NNE 3 6 30.53 1034 10 16.0934 N/A
7:55 am 07:55 Sunny 29 -1.7 22 -5.6 75 75 NE 6 9 30.53 1034 10 16.0934 N/A
8:15 am 08:15 Sunny 30 -1 22 -5.3 73 73 ENE 8 13 30.53 1034 10 16.0934 N/A
8:35 am 08:35 Sunny 31 -0.5 23 -5.2 71 71 ENE 9 15 30.53 1034 10 16.0934 N/A
8:55 am 08:55 Sunny 32 0.1 22 -5.4 67 67 ENE 10 17 30.5 1033 10 16.0934 N/A
9:15 am 09:15 Sunny 34 0.9 22 -5.6 62 62 ENE 10 17 30.5 1033 10 16.0934 N/A
9:35 am 09:35 Sunny 35 1.7 21 -6.1 57 57 E 9 15 30.5 1033 10 16.0934 N/A
9:55 am 09:55 Sunny 36 2.3 21 -6.2 54 54 E 8 13 30.53 1034 10 16.0934 N/A
10:15 am 10:15 Sunny 38 3.3 22 -5.7 52 52 E 12 19 30.5 1033 10 16.0934 N/A
10:35 am 10:35 Sunny 38 3.4 22 -5.6 52 52 ENE 8 13 30.5 1033 10 16.0934 N/A
10:55 am 10:55 Sunny 39 3.8 21 -6 49 49 ENE 6 9 30.5 1033 10 16.0934 N/A
11:15 am 11:15 Sunny 40 4.3 22 -5.8 48 48 ENE 9 15 30.48 1032 10 16.0934 N/A
11:35 am 11:35 Sunny 40 4.7 21 -6.3 45 45 E 8 13 30.48 1032 10 16.0934 N/A
11:55 am 11:55 Sunny 42 5.5 20 -6.4 42 42 SE 8 13 30.48 1032 10 16.0934 N/A
12:15 pm 12:15 Sunny 43 5.9 20 -6.8 40 40 SE 7 11 30.48 1032 10 16.0934 N/A
12:35 pm 12:35 Sunny 44 6.5 19 -7.5 36 36 ENE 9 15 30.48 1032 10 16.0934 N/A
12:55 pm 12:55 Sunny 45 7.1 18 -7.6 35 35 ENE 13 20 30.45 1031 10 16.0934 N/A
1:15 pm 13:15 Sunny 45 7.3 18 -7.7 34 34 ENE 9 15 30.45 1031 10 16.0934 N/A
1:35 pm 13:35 Sunny 46 7.8 21 -6.3 36 36 E 9 15 30.39 1029 10 16.0934 N/A
1:55 pm 13:55 Sunny 47 8.1 22 -5.8 37 37 ENE 9 15 30.39 1029 10 16.0934 N/A
2:15 pm 14:15 Sunny 47 8.2 21 -5.9 37 37 NE 10 17 30.39 1029 10 16.0934 N/A
2:35 pm 14:35 Sunny 46 8 22 -5.7 38 38 ENE 10 17 30.39 1029 10 16.0934 N/A
2:55 pm 14:55 Sunny 47 8.3 22 -5.5 37 37 ENE 10 17 30.39 1029 10 16.0934 N/A
3:15 pm 15:15 Sunny 47 8.3 21 -6 36 36 ENE 13 20 30.36 1028 10 16.0934 N/A
3:35 pm 15:35 Sunny 47 8.4 22 -5.6 37 37 NE 7 11 30.36 1028 10 16.0934 N/A
3:55 pm 15:55 Sunny 47 8.5 22 -5.3 38 38 ENE 12 19 30.36 1028 10 16.0934 N/A
4:15 pm 16:15 Sunny 47 8.5 21 -6.1 35 35 E 10 17 30.36 1028 10 16.0934 N/A
4:35 pm 16:35 Sunny 47 8.5 22 -5.6 37 37 E 9 15 30.36 1028 10 16.0934 N/A
4:55 pm 16:55 Sunny 47 8.4 22 -5.5 37 37 ENE 12 19 30.33 1027 10 16.0934 N/A
5:15 pm 17:15 Sunny 47 8.3 22 -5.6 37 37 E 10 17 30.33 1027 10 16.0934 N/A
5:35 pm 17:35 Sunny 46 7.9 22 -5.3 39 39 E 8 13 30.33 1027 10 16.0934 N/A
5:55 pm 17:55 Sunny 46 7.5 22 -5.7 39 39 E 13 20 30.33 1027 10 16.0934 N/A
6:15 pm 18:15 Sunny 44 6.6 23 -4.8 44 44 NE 12 19 30.33 1027 10 16.0934 N/A
6:35 pm 18:35 Clear 43 6.1 23 -5.2 45 45 ENE 10 17 30.36 1028 10 16.0934 N/A
6:55 pm 18:55 Clear 41 5 23 -5.2 48 48 ENE 9 15 30.36 1028 10 16.0934 N/A
7:15 pm 19:15 Clear 40 4.7 23 -4.9 50 50 ENE 8 13 30.36 1028 10 16.0934 N/A
7:35 pm 19:35 Clear 39 3.8 23 -4.8 54 54 ENE 6 9 30.36 1028 10 16.0934 N/A
7:55 pm 19:55 Clear 38 3.3 24 -4.6 57 57 ENE 7 11 30.36 1028 10 16.0934 N/A
8:15 pm 20:15 Clear 38 3.5 24 -4.4 57 57 NNE 3 6 30.36 1028 10 16.0934 N/A
8:35 pm 20:35 Clear 39 3.7 23 -4.8 54 54 NE 6 9 30.36 1028 10 16.0934 N/A
8:55 pm 20:55 Clear 37 2.9 23 -4.8 57 57 NE 3 6 30.36 1028 10 16.0934 N/A
9:15 pm 21:15 Clear 37 2.6 24 -4.5 60 60 ENE 6 9 30.36 1028 10 16.0934 N/A
9:35 pm 21:35 Clear 37 2.7 24 -4.5 59 59 ENE 8 13 30.36 1028 10 16.0934 N/A
9:55 pm 21:55 Clear 37 3 24 -4.7 57 57 NE 12 19 30.36 1028 10 16.0934 N/A
10:15 pm 22:15 Clear 37 3 23 -4.8 57 57 ENE 12 19 30.36 1028 10 16.0934 N/A
10:35 pm 22:35 Clear 37 2.7 23 -5.1 57 57 NE 10 17 30.36 1028 10 16.0934 N/A
10:55 pm 22:55 Clear 37 2.5 22 -5.4 56 56 NE 8 13 30.36 1028 10 16.0934 N/A
11:15 pm 23:15 Clear 35 1.9 21 -6.1 56 56 ENE 10 17 30.36 1028 10 16.0934 N/A
11:35 pm 23:35 Clear 35 1.6 19 -7.2 52 52 ENE 9 15 30.36 1028 10 16.0934 N/A
11:55 pm 23:55 Clear 35 1.4 19 -7.2 53 53 ENE 7 11 30.36 1028 10 16.0934 N/A

Powered by AerisWeather